Follow iAlert.com on twitter @ialertcom
Search For Active Alerts in Your Area  
  Hi Guest:  [ Sign-up / Services ] [ Login ]

Current weather by "City, St" or "zip code"  
 

Advertise Here

Current Conditions: Pottstown, Pottstown Limerick Airport, PA

Fair with Haze


72.0 F

Last Updated on Jun 18 2018, 7:54 am EDT
Humidity: 84%
Wind Speed: N 0.0 mph
Barometer 30.07 in
Dewpoint: 66.9 F
Visibility: 6.00 mi
Precip: --
Heat Index: NA
Wind Chill: NA
Current conditions at:

Pottstown, Pottstown Limerick Airport, PA (KPTW)

Lat: 40.23 Lon: 75.554

Local Radar Image active severe weather and emergency alerts image image weather storm and storm spotter reports image weather observation monitoring service image
Local
Radar
Active
Alerts
Storm Reports Obs
Monitoring

iAlert Weather and Emergency Alert Notification Services:


ialert severe weather and emergency alerts by text message and email ialert daily weather forecast by email and text message service ialert real-time weather-observation monitoring and alert notification service ialert storm report monitoring alert notification

Observation History for Pottstown, Pottstown Limerick Airport, PA


Time Wind
(mph)
Vis
(mi)
Weather Precip (in) Temperature (F) Relative
Humidity
Wind
Chill
(°F)
Heat
Index
(°F)
Pressure
Air Dwpt altimeter
(in)
sea level
(mb)
7:54 am EDT N 0.0 6.00 Fair with Haze -- 72.0 66.9 84% NA NA 30.07 1017.7
6:54 am EDT N 0.0 6.00 Fog/Mist -- 69.0 64.9 87% NA NA 30.08 1018.0
5:54 am EDT N 0.0 7.00 Fair -- 68.0 64.0 87% NA NA 30.09 1018.4
4:54 am EDT N 0.0 8.00 Fair -- 65.0 63.0 93% NA NA 30.08 1018.2
3:54 am EDT N 0.0 8.00 Fair -- 67.0 64.0 91% NA NA 30.08 1018.0
2:54 am EDT N 0.0 9.00 Fair -- 66.0 63.0 90% NA NA 30.09 1018.4
1:54 am EDT N 0.0 9.00 Fair -- 67.0 63.0 87% NA NA 30.09 1018.5
12:54 am EDT N 0.0 9.00 Fair -- 68.0 61.0 78% NA NA 30.10 1018.7
11:54 pm EDT N 0.0 9.00 Fair -- 72.0 59.0 64% NA NA 30.09 1018.5
10:54 pm EDT N 0.0 9.00 Fair -- 73.0 57.9 59% NA NA 30.09 1018.5
9:54 pm EDT S 5.8 9.00 Fair -- 77.0 57.9 52% NA NA 30.09 1018.4
8:54 pm EDT N 0.0 8.00 Fair -- 81.0 62.1 53% NA 82 30.07 1017.7
7:54 pm EDT S 4.6 8.00 Fair -- 83.0 62.1 49% NA 84 30.07 1017.7
6:54 pm EDT S 3.5 8.00 Fair -- 86.0 62.1 45% NA 87 30.07 1017.7
5:54 pm EDT SW 4.6 8.00 Overcast -- 85.0 62.1 46% NA 86 30.07 1017.8
4:54 pm EDT SW 5.8 8.00 Mostly Cloudy -- 86.0 61.0 43% NA 86 30.07 1017.9
3:54 pm EDT N 0.0 8.00 Partly Cloudy -- 88.0 62.1 42% NA 88 30.08 1018.0
2:54 pm EDT W 5.8 9.00 Fair -- 87.0 60.1 40% NA 87 30.08 1018.2
1:54 pm EDT N 0.0 9.00 Fair -- 85.0 60.1 43% NA 85 30.08 1018.3
12:54 pm EDT 4.6 9.00 Fair -- 84.0 57.9 41% NA 83 30.10 1018.8
11:54 am EDT SW 5.8 9.00 Fair -- 83.0 55.0 38% NA 82 30.12 1019.5
10:54 am EDT N 0.0 8.00 Fair -- 80.0 57.9 47% NA 81 30.12 1019.6
9:54 am EDT N 0.0 8.00 Fair -- 76.0 60.1 58% NA NA 30.12 1019.5

Regional Weather Observation


Pottstown, Pottstown Limerick Airport, PA (KPTW)

Fair with Haze
72.0 F

Allentown Queen City Municipal Airport, PA (KXLL)

Fair
77.0 F

Quakertown Airport, PA (KUKT)

Fair
79.0 F

Allentown, Lehigh Valley International Airport, PA (KABE)

Fair
78.0 F

Doylestown, Doylestown Airport, PA (KDYL)

Fair
78.0 F

Philadelphia, Northeast Philadelphia Airport, PA (KPNE)

Fair
82.0 F

Advertise Here